Dewpoint
51 51 51 51 51 50 50 52 53 53 56 57 59 59 59 58 59 59 58 58 58 59 60 60 60 58 50 44 41 49 55 52 47 45 39 34 30 29 27 27 27 24 25 26 30 29 26
49 50 52 51 51 52 51 51 52 52 53 55 58 59 59 59 59 59 58 57 58 58 59 59 60 56 44 36 42 44 41 44 45 42 39 37 32 32 29 27 25 27 29 27 28 28 27
46 48 50 51 51 51 52 52 53 52 52 53 56 58 59 59 59 58 58 57 57 58 58 59 59 48 43 37 39 39 37 37 39 40 38 38 37 30 31 28 29 30 24 27 27 27 26
46 46 48 50 50 51 51 52 53 53 53 53 56 58 59 59 59 59 58 56 57 58 58 58 58 46 36 41 39 37 37 38 38 39 41 40 38 35 33 32 29 26 27 24 28 27 28
48 47 46 48 50 51 50 50 51 52 53 53 55 58 59 59 59 58 57 57 57 58 58 57 48 44 35 44 37 37 38 36 37 38 38 34 38 32 31 29 29 29 22 25 27 28 29
48 46 46 46 48 51 50 51 51 52 52 51 53 55 58 58 58 57 56 57 56 57 52 49 45 41 36 34 38 37 37 39 37 38 37 36 35 31 29 27 22 24 25 26 26 28 29
48 47 46 47 48 49 50 50 51 51 51 51 52 53 57 58 58 56 54 51 47 43 48 39 37 35 36 38 39 39 38 37 38 35 25 36 29 24 27 27 28 28 25 23 24 29 27
48 48 47 46 48 48 49 49 50 51 50 50 51 51 57 58 58 57 53 46 45 43 41 46 45 42 38 37 35 39 39 32 32 26 32 31 26 27 28 29 27 26 24 24 25 29 27
48 48 47 46 47 47 48 48 49 50 50 49 51 51 57 57 57 55 50 46 49 47 36 34 44 41 41 39 34 37 36 34 31 30 32 28 26 31 30 29 27 26 25 23 22 28 27
47 48 48 47 46 46 47 48 49 50 50 50 50 51 55 56 53 51 49 49 49 45 26 26 40 41 41 39 36 40 37 35 34 29 33 31 32 28 29 28 26 24 26 26 27 25 20
46 47 47 47 46 46 47 46 48 49 50 50 51 51 52 55 48 48 44 49 48 33 10 22 39 40 42 33 34 38 39 37 32 30 32 29 29 28 27 26 26 24 30 29 28 28 26
46 47 47 47 46 46 47 47 47 48 49 50 51 51 52 54 53 49 50 48 38 28 12 30 34 35 37 34 37 37 36 37 34 29 29 29 33 29 28 30 29 32 32 32 31 26 19
46 46 47 47 46 46 47 47 47 47 49 49 50 51 50 51 47 52 48 41 31 21 24 29 29 35 34 32 35 35 34 32 29 26 26 30 30 31 31 28 30 30 23 21 16 17 16
46 46 46 47 46 46 47 47 47 47 48 49 50 50 50 49 49 51 46 35 26 26 23 31 33 34 30 32 33 34 32 30 31 24 27 26 23 30 31 28 28 28 23 20 5 17 18
46 45 44 46 46 46 47 47 47 47 47 47 50 46 47 49 52 51 44 30 20 27 25 30 29 28 28 29 32 32 30 30 30 29 18 24 21 31 30 30 28 28 28 26 25 24 21
46 45 45 46 46 47 47 47 46 46 46 47 46 44 43 50 53 50 40 30 28 29 31 29 22 25 24 26 29 28 30 30 29 29 30 28 27 30 29 30 29 28 29 26 26 19 19
45 46 46 46 45 46 46 47 46 46 46 46 45 40 45 52 52 44 34 30 32 32 30 27 21 25 23 25 28 27 29 28 29 29 29 29 28 28 28 27 27 27 27 27 28 24 19
46 46 46 46 46 46 46 46 46 46 46 45 41 34 47 52 39 39 35 31 34 31 33 33 29 25 26 26 28 28 27 29 37 30 26 28 28 26 27 28 29 28 27 27 25 23 24
46 46 46 46 46 46 45 46 46 46 47 43 34 34 45 47 31 32 33 32 33 31 30 33 31 32 29 26 25 27 29 37 38 32 26 28 26 22 23 25 29 27 27 27 25 26 24
44 45 45 45 45 46 45 45 46 46 46 42 33 31 37 40 38 33 32 31 31 36 34 34 31 33 31 27 29 32 34 37 37 38 41 37 30 23 19 22 27 26 27 27 26 23 22
43 43 43 45 45 45 45 45 46 46 46 42 33 32 32 31 31 34 34 33 31 31 36 36 34 32 32 30 30 34 35 35 35 37 37 33 29 31 30 29 27 26 26 27 26 25 23
44 43 42 43 45 45 45 45 45 46 46 42 33 32 34 32 34 34 35 33 31 32 33 33 30 34 33 31 32 32 35 34 32 35 35 35 30 29 27 30 29 27 29 27 27 27 26
43 43 43 42 44 46 45 46 46 46 45 39 40 40 35 33 32 32 33 34 33 34 34 36 35 35 33 34 36 36 36 36 35 34 33 32 30 27 23 27 24 19 27 30 30 29 28
42 42 43 43 42 43 45 45 45 45 46 43 41 41 34 30 33 33 33 36 36 34 32 36 36 35 36 37 36 35 34 34 34 35 35 30 28 26 24 24 17 21 28 27 27 25 24
40 43 43 43 42 42 42 43 45 45 46 43 43 40 35 31 33 33 33 33 37 37 33 35 35 37 37 35 30 28 28 29 31 34 34 35 29 26 25 21 24 25 26 25 26 22 20
38 39 43 42 42 43 42 42 44 45 46 44 43 44 40 32 32 35 33 34 32 31 31 33 38 39 37 34 31 25 24 27 26 28 34 33 31 30 25 23 20 23 25 28 27 21 21
40 40 40 41 42 42 42 42 43 45 46 44 42 44 40 33 36 36 33 32 35 33 30 32 33 33 36 30 26 24 23 28 22 22 24 26 26 27 26 21 24 28 23 26 22 21 18
38 40 40 41 41 42 42 42 44 45 44 42 41 44 40 34 35 35 35 35 35 34 30 32 31 31 30 25 25 25 23 26 23 23 24 22 22 22 24 20 19 26 25 21 24 24 15
39 40 40 40 41 42 42 42 42 44 44 42 39 43 43 37 34 36 35 34 34 36 35 34 30 30 32 28 25 25 19 17 21 18 22 22 23 24 22 23 26 25 23 24 26 17 15
Lifted_Index
7 8 8 9 10 10 11 10 9 9 9 8 7 7 7 7 7 7 7 8 8 7 7 7 7 8 9 8 8 8 9 9 9 9 9 8 7 7 5 5 4 5 5 5 6 6 6
4 5 6 8 9 9 10 10 10 9 9 9 7 7 7 6 7 7 7 8 8 8 7 7 7 8 9 8 8 8 8 9 9 9 8 8 7 7 6 5 5 4 4 5 5 5 5
1 2 3 5 6 8 8 9 9 10 10 9 8 7 6 6 6 7 7 8 8 8 8 7 8 9 9 9 9 9 9 9 9 9 9 8 8 7 6 5 5 4 4 4 4 4 4
-0 -0 1 2 3 5 7 8 8 9 10 9 8 6 5 5 6 7 7 8 8 8 8 7 8 9 9 9 9 9 9 10 10 10 10 9 9 7 6 6 5 4 3 3 3 4 4
-1 -1 -1 -0 1 3 5 6 7 8 9 9 8 6 5 5 5 6 7 8 8 8 8 8 8 9 9 9 9 9 9 9 10 10 10 9 8 7 6 5 4 3 3 2 3 3 4
-1 -1 -1 -1 -1 1 4 5 6 7 8 9 8 7 5 4 5 6 7 8 8 8 8 8 8 9 9 9 9 9 9 9 9 9 9 8 7 6 5 4 3 3 3 2 3 4 4
-1 -1 -1 -1 -1 0 2 4 5 6 7 8 8 7 5 4 4 5 7 8 8 8 8 8 8 8 9 9 9 9 9 9 8 8 7 7 6 5 5 5 4 3 3 3 4 4 4
-1 -1 -1 -1 -1 -0 1 3 4 5 6 8 7 6 5 4 4 5 7 7 7 7 7 7 7 8 8 8 8 9 9 8 7 6 6 5 5 5 5 5 5 4 3 3 4 5 5
-1 -1 -1 -1 -1 -1 0 1 2 4 5 7 7 6 5 4 4 5 6 7 6 6 7 7 7 7 7 8 8 8 8 8 6 5 5 5 5 5 5 5 4 4 3 3 4 4 4
-1 -1 -1 -1 -1 -1 -0 0 1 3 5 6 7 7 5 5 5 5 6 6 6 6 6 6 7 7 7 7 7 8 8 7 6 5 5 5 5 5 5 5 4 4 4 4 4 3 3
-1 -1 -1 -1 -1 -1 -0 0 1 3 4 5 6 7 6 5 5 5 5 5 5 5 4 6 7 7 7 7 7 7 7 7 6 6 5 5 5 5 5 5 5 5 5 5 4 3 3
-1 -1 -1 -1 -1 -1 -1 -0 1 2 3 4 5 7 6 5 4 4 4 3 4 4 4 6 7 7 6 6 7 7 7 6 6 5 5 5 6 6 6 6 6 6 5 4 4 3 2
-1 -1 -1 -1 -1 -1 -1 -0 1 2 3 4 5 6 6 5 4 3 2 2 3 4 5 6 7 6 6 6 6 6 6 5 5 4 4 4 5 6 6 6 6 5 4 3 2 2 1
-0 -0 -1 -1 -1 -1 -1 -0 0 1 3 4 5 6 6 5 4 2 1 2 3 5 6 7 6 6 5 5 5 5 4 4 4 4 3 3 3 5 6 6 5 4 4 2 1 1 1
-0 -0 -0 -1 -1 -1 -1 -1 -0 1 3 5 5 6 6 5 3 2 2 3 5 6 7 6 6 5 4 4 5 4 4 4 4 4 4 3 3 5 6 6 5 5 4 3 2 2 1
-0 -0 -0 -1 -1 -1 -1 -1 -0 1 3 5 5 5 5 4 3 2 3 4 6 6 6 6 5 4 4 4 4 3 4 4 5 5 5 4 4 5 5 6 5 5 5 4 3 2 1
-1 -1 -1 -1 -1 -1 -1 -0 0 2 4 5 5 5 4 3 3 2 3 5 6 6 6 5 4 3 3 3 3 3 3 4 5 5 5 5 4 4 5 5 5 5 4 4 3 2 1
-1 -1 -1 -1 -0 -1 -0 -0 1 2 4 5 5 4 3 2 2 3 4 5 6 6 6 5 4 4 3 3 2 2 3 3 4 4 4 4 4 3 3 4 4 4 4 4 4 3 3
-0 -0 -0 -0 -0 -0 -0 0 1 2 4 5 5 4 3 2 3 3 4 5 5 5 5 5 4 4 3 3 2 2 3 3 3 3 3 3 3 2 2 3 4 4 4 4 4 3 3
0 -0 -0 -0 -0 -0 -0 1 2 2 4 5 4 3 2 2 2 3 3 4 5 5 5 5 4 4 3 3 3 3 3 3 2 2 2 2 2 2 2 3 3 3 3 4 4 3 3
0 0 0 -0 -0 -0 -0 1 2 3 3 4 4 4 3 2 2 2 3 4 4 4 5 5 4 4 3 3 3 3 3 2 2 1 1 1 2 2 2 3 3 3 3 3 3 3 3
0 0 0 0 0 -0 -0 1 2 3 3 4 5 5 4 3 2 2 3 4 4 4 4 4 4 4 4 3 3 3 3 2 2 2 1 1 2 2 2 3 3 3 3 3 3 3 3
1 1 1 1 1 0 0 1 2 2 3 4 5 5 4 3 2 2 3 3 4 4 4 4 4 4 4 4 3 3 3 2 2 2 2 2 2 2 2 2 2 3 4 4 3 3 3
1 1 1 1 1 1 1 1 2 2 3 4 4 4 4 3 2 2 3 3 3 3 3 3 3 3 3 3 3 3 2 2 2 3 3 3 3 3 3 3 3 4 5 4 4 3 3
2 1 1 1 1 2 2 2 2 2 3 3 4 4 4 3 3 3 3 3 3 3 3 3 3 3 3 3 3 3 3 3 3 3 3 3 3 3 3 3 4 5 5 5 4 3 3
3 2 2 1 1 2 2 2 2 2 3 3 4 4 4 3 3 3 3 3 3 3 3 3 3 3 3 2 3 3 2 3 3 3 3 3 3 3 3 3 3 4 5 5 4 3 3
4 3 2 2 1 1 1 2 2 2 3 3 4 4 4 3 4 4 4 4 4 3 3 3 3 3 3 2 2 2 2 2 2 3 3 2 2 2 2 2 2 4 5 5 4 4 5
4 4 3 2 2 2 1 1 1 2 3 3 4 4 4 3 4 4 4 5 5 4 4 4 4 4 3 2 2 2 2 2 2 2 3 2 2 2 2 2 3 5 6 5 6 6 6
5 4 4 3 2 2 1 1 1 1 2 3 4 4 4 3 4 4 5 5 5 5 5 5 5 4 4 3 2 2 2 2 2 2 3 3 2 2 2 3 4 6 6 7 7 7 7